Regional Weather Roundup
Issued by NWS Kansas City/Pleasant Hill, MO

Home | Current Version | Previous Version | Graphics & Text | Print | Product List | Glossary Off
Versions: 1 2 3 4 5 6 7 8 9 10 11 12 13 14 15 16 17 18 19 20 21 22 23 24 25 26

000
ASUS43 KEAX 230310
RWREAX

WEATHER ROUNDUP FOR EASTERN KANSAS AND NORTHWEST MISSOURI
NATIONAL WEATHER SERVICE KANSAS CITY/PLEASANT HILL MO
1000 PM CDT SUN APR 22 2018

KSZ040-057-103>105-MOZ028-029-037-043-230400-
...KANSAS CITY METROPOLITAN AREA...

CITY           SKY/WX    TMP DP  RH WIND       PRES   REMARKS
K.C. INTL      CLOUDY    61  41  47 NE10      30.11R
K.C. DOWNTOWN  CLOUDY    64  41  42 NE8       30.09R
LEES SUMMIT    MOCLDY    58  41  53 NE8       30.09R
OLATHE - IXD   CLOUDY    61  43  51 NE12      30.10R
OLATHE - OJC   CLOUDY    59  42  53 NE10      30.09R
LAWRENCE       CLOUDY    61  45  55 NE6       30.10R

$$

MOZ001>008-011>017-020>025-030>033-038>040-044>046-053-054-230400-
...NORTHERN AND CENTRAL MISSOURI...

CITY           SKY/WX    TMP DP  RH WIND       PRES   REMARKS
ST. JOSEPH     CLOUDY    61  42  49 E7        30.12R
MOSBY          CLOUDY    61  37  41 NE6       30.10S
WARRENSBURG    CLOUDY    55  37  50 NE6       30.08R
WHITEMAN AFB   CLOUDY    57  38  49 NE8       30.03R
CLINTON        CLOUDY    55  45  67 NE10      30.06S
SEDALIA        CLOUDY    59  40  49 E9        30.08R
WARSAW         NOT AVBL
CHILLICOTHE      N/A     59  38  45 N5        30.13R
KIRKSVILLE     CLOUDY    56  28  34 NE12      30.13S

$$

MOZ041-047>049-056>058-063>065-088>090-097-230400-
...EASTERN AND SOUTHERN MISSOURI...

CITY           SKY/WX    TMP DP  RH WIND       PRES   REMARKS
ST. LOUIS INTL LGT RAIN  60  50  69 E16       30.06R
SPIRIT OF STL  CLOUDY    57  48  72 E7        30.04S
COLUMBIA       CLOUDY    57  42  57 NE16      30.05F
JEFFERSON CITY CLOUDY    57  44  62 NE10G21   30.04S
ROLLA          CLOUDY    52  45  77 NE12      30.01S
OSAGE BEACH    CLOUDY    49  47  93 NE5       30.03R
SPRINGFIELD    CLOUDY    52  49  89 NE14      29.98R
BRANSON        CLOUDY    50  50 100 N9        29.96S
JOPLIN         CLOUDY    55  51  86 NE9       30.01R
WEST PLAINS    LGT RAIN  53  51  93 NE9       29.94R

$$

IAZ060-094-KSZ022-034>040-054-083-096-NEZ052-066-093-230400-
...KANSAS...SOUTHEAST NEBRASKA AND IOWA...

CITY           SKY/WX    TMP DP  RH WIND       PRES   REMARKS
TOPEKA         CLOUDY    62  45  53 E6        30.11R
MANHATTAN      CLOUDY    61  42  49 CALM      30.11R
EMPORIA        CLOUDY    56  48  74 CALM      30.10R
CHANUTE        CLOUDY    55  50  83 N7        30.07R
WICHITA        CLOUDY    55  45  68 NE7       30.11R
OMAHA          PTCLDY    59  29  31 E8        30.17R
LINCOLN        CLOUDY    57  36  45 NE9       30.17R
FALLS CITY     MOCLDY    57  37  47 E8        30.13R
LAMONI         CLOUDY    61  38  42 E10G18    30.15R
DES MOINES     PTCLDY    60  25  26 E7        30.19R

$$





USA.gov is the U.S. government's official web portal to all federal, state and local government web resources and services.